Starlink 32602

operational
NORAD ID: 62181 Int'l Des: 2024-225 Owner: SPXS Country: US Constellation: starlink
LEOCIRCULAR

Über Starlink 32602

Beschreibung wird geladen...

Live-Position

3D-Globus wird geladen...

Nächste Überflüge

Höhenverlauf

Altitude vs Time

uPlot chart will show altitude changes over time

Zweizeiliger Elementsatz

1 62181U 24225U 25257.37004682 .00004016 00000-0 34409-3 0 9998
2 62181 69.9993 239.0262 0003584 269.3389 90.7359 14.98339002 43716
Epoch: 14. Sept. 2025 • Age: 26 hours

Aktueller Status

Höhe 575.4 km
Geschwindigkeit 7.57 km/s
Subsatellitenpunkt -8.35°S, 105.73°W
Startdatum 30. Nov. 2024
Alter 0.7 years
Typ internet

Technische Details

Klassifizierung Payload
Masse 730.00 kg
Trockenmasse 700.00 kg
Gesamtmasse 730.00 kg
Länge 0.30 m
Durchmesser 4.10 m
Spannweite 29.00 m
Form Box + pan
Hersteller SPXS
Bus-Typ Starlink V2M
Phasenstatus In Orbit
Besitzer/Staat SPXS/US

Große Konstellationen

Loading constellations...